Oscoda, MI

3:16 AM EST on December 10, 2019 (GMT -0500)
Oscoda-Wurtsmith

Weather History for KOSC - October, 2019

Change the Weather History Date:

Saturday, October 5, 2019

  Actual Average Record
Temperature  
Mean Temperature 46 °F -  
Max Temperature 57 °F 60 °F 86 °F (2005)
Min Temperature 34 °F 41 °F 24 °F (2004)
Degree Days  
Heating Degree Days 20    
Moisture  
Dew Point 43 °F    
Average Humidity 80    
Maximum Humidity 100    
Minimum Humidity 59    
Precipitation  
Precipitation 0.00 in - - ()
Sea Level Pressure  
Sea Level Pressure 30.22 in    
Wind  
Wind Speed 5 mph (SSE)    
Max Wind Speed 16 mph    
Max Gust Speed 21 mph    
Visibility 10 miles    
Events Rain    
Averages and records for this station are not official NWS values.
T = Trace of Precipitation, MM = Missing Value Source: NWS Daily Summary

Daily Weather History Graph

Daily Weather History Graph

Search for Another Location

Airport or City:

Astronomy

Oct. 05, 2019 Rise Set
Actual Time 7:35 AM EDT 7:07 PM EDT
Civil Twilight 7:06 AM EDT 7:36 PM EDT
Nautical Twilight 6:33 AM EDT 8:09 PM EDT
Astronomical Twilight 5:59 AM EDT 8:43 PM EDT
Moon 3:13 PM EDT (10/5) No Moon Set
Length of Visible Light 12h 29m
Length of Day
11h 31m
Waxing Crescent, 50% of the Moon is Illuminated
Oct 5
Waxing Crescent
Oct 5
First Quarter
Oct 13
Full
Oct 21
Last Quarter
Oct 27
New

Hourly Weather History & Observations

Time (EDT) Temp. Windchill Dew Point Humidity Pressure Visibility Wind Dir Wind Speed Gust Speed Precip Events Conditions
12:19 AM 36.7 °F 34.1 °F 36.7 °F 100% 30.43 in 10.0 mi NW 3.5 mph - N/A   Clear
12:37 AM 34.9 °F - 34.9 °F 100% 30.43 in 10.0 mi Calm Calm - N/A   Clear
12:55 AM 34.9 °F - 34.9 °F 100% 30.42 in 10.0 mi Calm Calm - N/A   Clear
12:56 AM 34.9 °F - 34.9 °F 100% 30.42 in 10.0 mi Calm Calm - N/A   Clear
1:15 AM 35.1 °F 32.2 °F 35.1 °F 100% 30.41 in 10.0 mi West 3.5 mph - N/A   Mostly Cloudy
1:16 AM 35.1 °F 32.2 °F 35.1 °F 100% 30.41 in 10.0 mi West 3.5 mph - N/A   Mostly Cloudy
1:35 AM 35.6 °F - 35.6 °F 100% 30.41 in 10.0 mi Calm Calm - N/A   Overcast
1:40 AM 36.0 °F - 36.0 °F 100% 30.41 in 10.0 mi Calm Calm - N/A   Overcast
1:58 AM 37.2 °F - 37.0 °F 99% 30.41 in 10.0 mi Calm Calm - N/A   Mostly Cloudy
2:16 AM 37.6 °F - 36.9 °F 97% 30.41 in 10.0 mi Calm Calm - N/A   Mostly Cloudy
2:35 AM 36.5 °F - 36.5 °F 100% 30.41 in 10.0 mi Calm Calm - N/A   Mostly Cloudy
2:55 AM 37.2 °F - 37.2 °F 100% 30.40 in 10.0 mi Calm Calm - N/A   Overcast
3:18 AM 37.8 °F - 37.8 °F 100% 30.39 in 10.0 mi Calm Calm - N/A   Overcast
3:36 AM 37.0 °F 34.5 °F 36.9 °F 99% 30.38 in 10.0 mi WNW 3.5 mph - N/A   Overcast
3:55 AM 35.4 °F - 35.4 °F 100% 30.38 in 10.0 mi Calm Calm - N/A   Mostly Cloudy
4:15 AM 37.6 °F 35.1 °F 37.6 °F 100% 30.38 in 10.0 mi WNW 3.5 mph - N/A   Overcast
4:39 AM 39.6 °F - 39.6 °F 100% 30.38 in 10.0 mi Calm Calm - N/A   Overcast
4:57 AM 39.2 °F - 39.2 °F 100% 30.38 in 10.0 mi Calm Calm - N/A   Mostly Cloudy
5:15 AM 39.0 °F - 38.7 °F 99% 30.37 in 10.0 mi Calm Calm - N/A   Overcast
5:35 AM 38.1 °F 35.7 °F 38.1 °F 100% 30.37 in 10.0 mi WNW 3.5 mph - N/A   Scattered Clouds
5:55 AM 37.4 °F - 37.4 °F 100% 30.38 in 10.0 mi Calm Calm - N/A   Mostly Cloudy
6:00 AM 37.4 °F - 37.4 °F 100% 30.38 in 10.0 mi Calm Calm - N/A   Mostly Cloudy
6:18 AM 37.8 °F - 37.8 °F 100% 30.37 in 10.0 mi Calm Calm - N/A   Mostly Cloudy
6:36 AM 36.9 °F 34.3 °F 36.9 °F 100% 30.37 in 10.0 mi NW 3.5 mph - N/A   Scattered Clouds
6:55 AM 36.9 °F - 36.9 °F 100% 30.37 in 10.0 mi Calm Calm - N/A   Mostly Cloudy
7:15 AM 37.4 °F - 37.4 °F 100% 30.36 in 10.0 mi Calm Calm - N/A   Overcast
7:16 AM 37.4 °F - 37.4 °F 100% 30.36 in 10.0 mi Calm Calm - N/A   Overcast
7:39 AM 37.4 °F - 37.4 °F 100% 30.36 in 10.0 mi Calm Calm - N/A   Overcast
7:57 AM 37.4 °F - 37.4 °F 100% 30.35 in 10.0 mi Calm Calm - N/A   Overcast
8:15 AM 38.1 °F - 37.6 °F 98% 30.34 in 10.0 mi Calm Calm - N/A   Mostly Cloudy
8:35 AM 41.0 °F - 41.0 °F 100% 30.34 in 10.0 mi Calm Calm - N/A   Mostly Cloudy
8:36 AM 41.0 °F - 41.0 °F 100% 30.34 in 10.0 mi Calm Calm - N/A   Mostly Cloudy
8:55 AM 44.8 °F - 44.1 °F 97% 30.34 in 10.0 mi Calm Calm - N/A   Scattered Clouds
9:00 AM 47.1 °F - 44.8 °F 92% 30.33 in 10.0 mi Calm Calm - N/A   Scattered Clouds
9:18 AM 51.1 °F - 43.3 °F 75% 30.33 in 10.0 mi SSE 8.1 mph - N/A   Clear
9:36 AM 51.1 °F - 43.2 °F 74% 30.32 in 10.0 mi SE 5.8 mph - N/A   Clear
9:55 AM 51.8 °F - 43.2 °F 72% 30.31 in 10.0 mi SE 6.9 mph - N/A   Clear
9:56 AM 52.0 °F - 43.3 °F 72% 30.31 in 10.0 mi SE 8.1 mph - N/A   Clear
10:15 AM 53.6 °F - 42.6 °F 66% 30.31 in 10.0 mi ESE 11.5 mph 17.3 mph N/A   Clear
10:16 AM 53.4 °F - 42.6 °F 67% 30.31 in 10.0 mi ESE 11.5 mph 17.3 mph N/A   Clear
10:39 AM 54.5 °F - 43.2 °F 66% 30.31 in 10.0 mi SE 13.8 mph 18.4 mph N/A   Scattered Clouds
10:57 AM 55.6 °F - 43.9 °F 65% 30.30 in 10.0 mi SE 12.7 mph 18.4 mph N/A   Scattered Clouds
11:15 AM 54.9 °F - 43.0 °F 64% 30.29 in 10.0 mi SE 13.8 mph 19.6 mph N/A   Scattered Clouds
11:16 AM 54.9 °F - 43.0 °F 64% 30.30 in 10.0 mi SE 15.0 mph 19.6 mph N/A   Scattered Clouds
11:35 AM 56.3 °F - 43.5 °F 62% 30.28 in 10.0 mi SE 11.5 mph - N/A   Scattered Clouds
11:36 AM 56.3 °F - 43.3 °F 62% 30.28 in 10.0 mi SE 13.8 mph 19.6 mph N/A   Scattered Clouds
11:55 AM 56.7 °F - 43.7 °F 62% 30.28 in 10.0 mi SSE 13.8 mph - N/A   Clear
12:00 PM 55.6 °F - 43.7 °F 64% 30.27 in 10.0 mi SE 11.5 mph 16.1 mph N/A   Clear
12:18 PM 57.2 °F - 43.9 °F 61% 30.26 in 10.0 mi SE 11.5 mph 18.4 mph N/A   Scattered Clouds
12:36 PM 57.2 °F - 43.2 °F 59% 30.26 in 10.0 mi SE 12.7 mph 19.6 mph N/A   Scattered Clouds
12:55 PM 56.8 °F - 43.5 °F 61% 30.25 in 10.0 mi SSE 12.7 mph 19.6 mph N/A   Scattered Clouds
1:15 PM 55.9 °F - 43.5 °F 63% 30.24 in 10.0 mi SE 9.2 mph 17.3 mph N/A   Mostly Cloudy
1:16 PM 55.8 °F - 43.5 °F 63% 30.24 in 10.0 mi SE 9.2 mph 17.3 mph N/A   Mostly Cloudy
1:39 PM 55.6 °F - 43.7 °F 64% 30.23 in 10.0 mi SE 12.7 mph 19.6 mph N/A   Scattered Clouds
1:57 PM 55.6 °F - 44.1 °F 65% 30.22 in 10.0 mi SE 11.5 mph - N/A   Mostly Cloudy
2:15 PM 55.9 °F - 44.2 °F 65% 30.20 in 10.0 mi SE 13.8 mph 18.4 mph N/A   Mostly Cloudy
2:35 PM 55.6 °F - 45.7 °F 69% 30.19 in 10.0 mi SE 12.7 mph 19.6 mph N/A   Mostly Cloudy
2:36 PM 55.4 °F - 45.7 °F 70% 30.19 in 10.0 mi SE 12.7 mph 19.6 mph N/A   Overcast
2:55 PM 55.2 °F - 46.0 °F 71% 30.18 in 10.0 mi ESE 13.8 mph 18.4 mph N/A   Overcast
3:18 PM 55.6 °F - 45.7 °F 69% 30.16 in 10.0 mi SE 12.7 mph 19.6 mph N/A   Overcast
3:36 PM 55.4 °F - 44.8 °F 67% 30.14 in 10.0 mi SE 15.0 mph 20.7 mph N/A   Mostly Cloudy
3:55 PM 55.4 °F - 44.4 °F 67% 30.13 in 10.0 mi ESE 13.8 mph 19.6 mph N/A   Mostly Cloudy
4:15 PM 56.3 °F - 44.8 °F 65% 30.12 in 10.0 mi SE 10.4 mph - N/A   Mostly Cloudy
4:39 PM 55.8 °F - 43.9 °F 64% 30.10 in 10.0 mi ESE 11.5 mph 16.1 mph N/A   Scattered Clouds
4:57 PM 56.3 °F - 44.4 °F 64% 30.09 in 10.0 mi SE 12.7 mph 17.3 mph N/A   Clear
5:15 PM 57.2 °F - 44.6 °F 63% 30.08 in 10.0 mi SE 9.2 mph 20.7 mph N/A   Clear
5:35 PM 55.9 °F - 44.6 °F 66% 30.06 in 10.0 mi SE 11.5 mph 16.1 mph N/A   Clear
5:36 PM 55.9 °F - 44.6 °F 66% 30.06 in 10.0 mi SE 11.5 mph 16.1 mph N/A   Clear
5:55 PM 56.3 °F - 44.2 °F 64% 30.06 in 10.0 mi SE 6.9 mph 18.4 mph N/A   Clear
6:00 PM 56.3 °F - 44.4 °F 64% 30.06 in 10.0 mi SE 8.1 mph - N/A   Clear
6:18 PM 55.9 °F - 44.6 °F 66% 30.07 in 10.0 mi South 6.9 mph - N/A   Scattered Clouds
6:36 PM 55.9 °F - 45.0 °F 67% 30.06 in 10.0 mi SSE 6.9 mph - N/A   Mostly Cloudy
6:55 PM 56.1 °F - 45.5 °F 68% 30.05 in 10.0 mi SSE 6.9 mph - N/A   Overcast
6:56 PM 56.3 °F - 45.5 °F 67% 30.05 in 10.0 mi SSE 6.9 mph - N/A   Overcast
7:15 PM 55.9 °F - 45.7 °F 68% 30.04 in 10.0 mi SE 6.9 mph - N/A   Overcast
7:16 PM 55.9 °F - 45.9 °F 69% 30.04 in 10.0 mi SE 6.9 mph - N/A   Overcast
7:39 PM 56.3 °F - 46.8 °F 70% 30.03 in 10.0 mi SSE 5.8 mph - N/A   Overcast
7:57 PM 56.5 °F - 47.1 °F 71% 30.01 in 10.0 mi SSE 8.1 mph - N/A   Overcast
8:15 PM 56.7 °F - 47.3 °F 71% 30.01 in 10.0 mi SSE 9.2 mph - N/A   Overcast
8:16 PM 56.7 °F - 47.3 °F 71% 30.01 in 10.0 mi SSE 9.2 mph - N/A   Overcast
8:35 PM 56.8 °F - 48.2 °F 73% 30.01 in 10.0 mi SSE 10.4 mph - N/A   Overcast
8:55 PM 57.2 °F - 48.4 °F 72% 30.01 in 10.0 mi SSE 10.4 mph - N/A   Overcast
9:18 PM 57.2 °F - 48.2 °F 72% 29.99 in 10.0 mi SSE 15.0 mph 18.4 mph N/A   Overcast
9:36 PM 57.2 °F - 48.6 °F 73% 29.96 in 10.0 mi SSE 13.8 mph 19.6 mph N/A   Overcast
9:55 PM 57.0 °F - 48.7 °F 74% 29.96 in 10.0 mi SSE 12.7 mph 20.7 mph N/A   Overcast
10:15 PM 56.5 °F - 48.7 °F 75% 29.94 in 10.0 mi SSE 10.4 mph - N/A   Overcast
10:16 PM 56.5 °F - 48.7 °F 75% 29.94 in 10.0 mi SSE 11.5 mph - N/A   Overcast
10:39 PM 56.3 °F - 48.7 °F 76% 29.93 in 10.0 mi South 16.1 mph 20.7 mph N/A   Mostly Cloudy
10:57 PM 56.1 °F - 48.6 °F 76% 29.91 in 10.0 mi South 15.0 mph 20.7 mph N/A   Overcast
11:15 PM 55.4 °F - 49.3 °F 80% 29.90 in 10.0 mi South 12.7 mph 18.4 mph N/A Rain Light Rain
11:35 PM 54.7 °F - 50.0 °F 84% 29.91 in 10.0 mi South 9.2 mph - N/A Rain Light Rain
11:55 PM 54.5 °F - 50.7 °F 87% 29.93 in 10.0 mi SSW 9.2 mph - N/A   Light Drizzle
11:59 PM 54.5 °F - 50.9 °F 88% 29.93 in 10.0 mi SW 8.1 mph - N/A   Light Drizzle